www.pogodaiklimat.ru

Погода и климат >> Архив погоды >> Россия >> Краснодарский край >> Сочи аэропорт (Адлер)


ПОГОДА в Сочи аэропорту (Адлер)

  • Прогноз погоды в Сочи аэропорту (Адлер)
  • Монитор погоды в Сочи аэропорту (Адлер)
  • Климат города

АРХИВ ПОГОДЫ в Сочи аэропорту (Адлер)

Время (UTC), дата Ветер
(напр.,м/с)
 
Видим.   Явления Облачность Т
(С)
Тd
(С)
f
(%)
Тe
(С)
Тes
(С)
Комфортность P
(гПа)
Po
(гПа)
Тmin
(С)
Tmax
(С)
R
(мм)
R24
(мм)
S
(см)
03 8.12 СВ 3 4000 м {ливн. осадки} 10/5 1200 м
[Sc Ac und]
+5.5 +5.0 97 +2 +2 1018.6 1016.7 +5.3 8
06 8.12 В 1 20 км {ливн. осадки} 4/4 1500 м
[Cu Sc]
+5.7 +4.8 94 +4 +5 1020.0 1018.1 +4.2
09 8.12 В 2 20 км {ливн. осадки} 9/3 1500 м
[Cb cap Ac und]
+8.3 +4.5 77 +7 +8 1019.9 1018.1
12 8.12 В 2 20 км 10/6 1500 м
[Sc Ac und]
+9.9 +0.9 53 +9 +9 1023.5 1021.7
15 8.12 В 2 4000 м 10/8 1500 м
[Sc Ac und]
+7.9 +4.3 78 +6 +6 1019.5 1017.7 +10.4 0.0
18 8.12 СВ 1 4000 м 10/0
[Ac und]
+7.0 +3.2 77 +6 +6 1019.8 1017.9
21 8.12 В 2 4000 м 10/0
[Ac und]
+6.4 +3.6 82 +4 +4 1019.9 1018.0
00 9.12 СВ 3 4000 м 9/0
[Ac und]
+5.2 +2.7 84 +2 +2 1019.6 1017.7
03 9.12 В 6 4000 м ясно +4.7 +1.9 82 -1 -1 1018.9 1017.0 +3.7
06 9.12 СВ 6 20 км 1/1 600 м
[Sc]
+5.4 +1.9 78 +1 +1 1019.4 1017.5
09 9.12 ЮВ 4 20 км 1/1 600 м
[Sc]
+11.8 +4.3 60 +10 +12 1018.0 1016.2
12 9.12 В 4 20 км 3/1 600 м
[Sc Ci fib]
+12.6 +6.1 65 +11 +12 1016.4 1014.6
15 9.12 В 5 4000 м 10/0
[Ac und]
+9.3 +4.1 70 +6 +6 1015.8 1014.0 +12.9
18 9.12 СВ 5 4000 м 6/0
[Ci fib]
+8.4 +3.0 69 +5 +5 1014.8 1013.0
21 9.12 В 5 4000 м 4/0
[Ac trans]
+9.0 +0.9 57 +6 +6 1013.8 1012.0
00 10.12 СВ 6 4000 м 3/0
[Ac trans]
+8.0 +1.1 62 +4 +4 1013.2 1011.4
03 10.12 СВ 6 4000 м 5/0
[Ci fib]
+7.8 +0.4 59 +4 +4 1011.7 1009.8 +7.1
06 10.12 В 6 20 км 9/0
[Ac trans Ci fib]
+10.3 +0.2 50 +7 +7 1011.2 1009.4
09 10.12 ЮВ 4 20 км 10/0
[Ac und]
+15.2 +1.3 39 +14 +15 1009.9 1008.1
12 10.12 В 3 20 км 10/0
[Ac und]
+15.4 +1.9 40 +15 +15 1010.0 1008.2
15 10.12 ЮВ 2 4000 м слабый ливневой дождь 10/5 1500 м
[Cb cap Ac und]
+15.2 +8.1 63 +15 +15 1012.0 1010.2 +16.5 0.0
18 10.12 СВ 5
{10}
4000 м в посл. час ливневой дождь 10/4 1500 м
[Cb cap Ac und]
+10.7 +6.7 76 +8 +8 1010.7 1008.9
21 10.12 СВ 4
{13}
4000 м 10/4 1500 м
[Cb cap Ac und]
+13.1 +6.2 63 +12 +12 1010.4 1008.6
00 11.12 В 4
{13}
4000 м 9/0
[Ac trans]
+11.4 +8.1 80 +9 +9 1007.5 1005.7
03 11.12 В 5 4000 м 3/0
[Ac trans]
+10.9 +5.0 67 +8 +8 1004.3 1002.5 +10.3 0.0
06 11.12 В 5 20 км 10/0
[Ac und]
+13.1 +5.1 58 +11 +11 1002.4 1000.6
09 11.12 Ю 6-13
{13}
20 км слабый ливневой дождь 10/5 1500 м
[Cb cap Ac und]
+18.6 +4.6 40 +18 +19 1002.7 1000.9
12 11.12 В 6
{13}
20 км в посл. час ливневой дождь 10/5 1500 м
[Cb cap Ac und]
+13.2 +8.8 75 +11 +11 1005.9 1004.1
15 11.12 Ю 5
{11}
4000 м {ливн. осадки} 10/4 1500 м
[Cb cap Ac und]
+15.6 +4.5 48 +15 +15 1008.9 1007.1 +20.2 7
18 11.12 З 3
{12}
4000 м {гроза} 8/4 870 м
[Cb cap Ac trans]
+12.1 +6.8 70 +11 +11 1012.4 1010.6
21 11.12 СВ 1 4000 м 6/3 1050 м
[Cb cap Ac trans]
+8.9 +7.7 92 +8 +8 1013.8 1012.0
00 12.12 СВ 3 4000 м {ливн. осадки} 8/8 1260 м
[Cb cap]
+8.6 +6.8 88 +6 +6 1013.7 1011.9
03 12.12 СВ 1 4000 м в посл. час ливневой дождь 10/8 930 м
[Cb cap Ac und]
+8.2 +7.0 92 +7 +7 1012.2 1010.4 +8.0 0.1
06 12.12 ЮЗ 3 20 км слабый ливневой дождь 10/10 1000 м
[Cb cap]
+8.7 +6.4 85 +6 +6 1012.2 1010.4 +7.4
09 12.12 штиль 0 20 км в посл. час ливневой дождь 10/8 1500 м
[Cb cap Ac und]
+9.1 +7.1 87 +8 +9 1010.9 1009.1
12 12.12 С 2 10 км слабый ливневой дождь 10/10 1200 м
[Cb cap]
+9.6 +5.0 73 +8 +8 1010.3 1008.5
15 12.12 СЗ 3 4000 м слабый ливневой дождь 10/10 900 м
[Cb cap]
+8.2 +5.6 84 +6 +6 1011.0 1009.2 +10.6 2
18 12.12 СВ 3 4000 м в посл. час ливневой дождь 10/8 1200 м
[Cb cap Ac und]
+7.1 +6.4 95 +4 +4 1012.6 1010.7
21 12.12 В 1 4000 м 9/3 1000 м
[Sc Ac trans]
+5.8 +5.3 97 +4 +4 1013.9 1012.0
00 13.12 СВ 2 4000 м 5/3 1000 м
[Sc Ac trans]
+4.0 +3.5 97 +1 +1 1014.9 1013.0
03 13.12 С 3 4000 м 8/0
[Ac trans]
+3.5 +3.0 97 -1 -1 1016.5 1014.6 +2.3 0.0
06 13.12 СВ 1 20 км 9/4 600 м
[Sc Ac trans Ci fib]
+4.8 +3.3 90 +3 +4 1018.3 1016.4
09 13.12 З 1 20 км 9/1 600 м
[St Ac trans Ci fib]
+9.4 +3.4 66 +9 +11 1019.2 1017.4
12 13.12 В 1 10 км слабый ливневой дождь 10/10 1020 м
[Cb cap]
+7.3 +4.1 80 +6 +6 1020.7 1018.8
15 13.12 СВ 2 4000 м слабый ливневой дождь 10/8 1170 м
[Cb cap Ac und]
+5.0 +4.1 94 +2 +2 1023.4 1021.5 +10.2 3
18 13.12 С 1 4000 м {ливн. осадки} 6/3 1500 м
[Sc Ac trans]
+4.6 +3.6 93 +3 +3 1024.7 1022.8
21 13.12 С 4 4000 м слабый ливневой дождь 10/10 1200 м
[Cb cap]
+5.0 +4.1 94 +1 +1 1025.0 1023.1
00 14.12 С 2 4000 м слабый ливневой дождь 10/10 600 м
[Cb cap]
+5.1 +3.7 91 +2 +2 1025.3 1023.6
03 14.12 В 3 4000 м гроза, ливневой дождь 10/10 840 м
[Cb cap]
+4.7 +3.5 92 +1 +1 1025.0 1023.1 +3.7 4
06 14.12 СВ 2 20 км слабый ливневой дождь, в посл. час гроза 10/10 1050 м
[Cb cap]
+5.6 +2.7 82 +3 +3 1026.0 1024.1
09 14.12 В 4 20 км {гроза, ливн. осадки} 6/3 1500 м
[Cb cap Ci fib]
+7.3 +4.3 81 +4 +5 1025.7 1023.8
12 14.12 ЮВ 5 20 км {гроза, ливн. осадки} 3/3 1500 м
[Cu hum]
+9.4 +2.7 63 +6 +7 1025.6 1023.8
15 14.12 В 5 4000 м 6/6 1500 м
[Sc]
+9.0 -0.7 51 +6 +6 1025.8 1024.0 +10.1 0.4
18 14.12 СВ 4
{10}
4000 м зарница 10/8 1500 м
[Cb cap Ac und]
+6.9 +2.6 74 +3 +3 1026.7 1024.8
21 14.12 СВ 6 4000 м 3/3 1500 м
[Sc]
+5.0 +1.5 78 0 0 1026.7 1024.8
00 15.12 СВ 6 4000 м 3/0
[Ac trans]
+4.1 +0.4 77 -1 -1 1026.9 1025.0

 

Местоположение метеостанции Сочи аэропорт (Адлер) (Краснодарский край, Россия): широта 43.43 долгота 39.90 высота над уровнем моря 15 м.

В архиве по умолчанию представлена погода в Сочи аэропорту (Адлер) за последнюю неделю. Архивные данные за месяц целиком и за предыдущие месяцы, начиная с января 2011 года, Вы можете получить, выбрав интересующий диапазон дат из раскрывающегося списка и нажав кнопку "Ввод!".


*Определитесь, кто Вы:
робот инопланетянин человек

Внимание! Время в таблицах - всемирное. Для получения местного времени необходимо прибавить поправку, которая в Сочи аэропорту (Адлер) равна 3 ч.

Смотрите также архив погоды в соседних городах и на ближайших метеорологических станциях:

Погода в Имеретинке (Краснодарский край, Россия) (5 км)
Погода в Сочи (Краснодарский край, Россия) (20 км)
Погода в Кепше (Краснодарский край, Россия) (24 км)
Погода в Красной Поляне (Краснодарский край, Россия) (37 км)
Погода в Горная Карусель 1500 (Краснодарский край, Россия) (40 км)
Погода в Горная Карусель 1000 (Краснодарский край, Россия) (40 км)
Погода в Кордоне Лаура (Краснодарский край, Россия) (44 км)
Погода в Солох Ауле (Краснодарский край, Россия) (47 км)
Погода в Кичмае (Краснодарский край, Россия) (54 км)
Погода в Гузерипле (Адыгея, Россия) (66 км)

Пояснения к столбцам:

Ветер - указаны скорость ветра в м/с - средняя за 10 мин, порывы в срок и между сроками (в фигурных скобках) и направление, откуда дует ветер: С - северный, СВ - северо-восточный, В - восточный, ЮВ - юго-восточный, Ю - южный, ЮЗ - юго-западный, З - западный, СЗ - северо-западный.
Видимость - горизонтальная дальность видимости в метрах или километрах. При видимости от 1 до 10 км при отсутствии осадков обычно наблюдается дымка, при ухудшении видимости до 1 км и менее - туман. В сухую погоду видимость может ухудшаться дымом, пылью или мглою.
Явления - указаны атмосферные явления, наблюдавшиеся в срок или в последний час перед сроком; фигурными скобками обозначены явления, наблюдавшиеся между сроками (за 1-3 часа до срока); квадратными скобками обозначены град или гололедные отложения с указанием их диаметра в мм.
Облачность - указаны через наклонную черту общая и нижняя облачность в баллах и высота нижней границы облаков в метрах; квадратными скобками обозначены формы облаков: Ci - перистые, Cs - перисто-слоистые, Cc - перисто-кучевые, Ac - высококучевые, As - высокослоистые, Sc - слоисто-кучевые, Ns - слоисто-дождевые, Cu - кучевые, Cb - кучево-дождевые. Подробнее классификацию облаков см. в Атласе облаков (PDF).
T - Температура воздуха - температура, измеренная на высоте 2 м над землей.
Td - Температура точки росы - температура, при понижении до которой содержащийся в воздухе водяной пар достигнет насыщения.
f - Относительная влажность воздуха - влажноcть воздуха, измеренная на высоте 2 м над землей.
Te - Эффективная температура - температура, которую ощущает одетый по сезону человек в тени. Характеристика душности погоды. При расчете учитывается влияние влажности воздуха и скорости ветра на теплоощущения человека.
Tes - Эффективная температура на солнце - температура, которую ощущает человек, с поправкой на солнечный нагрев. Характеристика знойности погоды. Зависит от высоты солнца над горизонтом, облачности и скорости ветра. Ночью, в пасмурную погоду, а также при ветре 12 м/с и более поправка равна нулю.
P - Атмосферное давление - приведенное к уровню моря атмосферное давление.
Po - Атмосферное давление - измеренное на уровне метеостанции атмосферное давление.
Tmin - Минимальная температура - минимум температуры воздуха на высоте 2 м над землей.
Tmax - Максимальная температура - максимум температуры воздуха на высоте 2 м над землей.
R - Количество осадков - Количество выпавших осадков за период времени, мм. При наведении курсора мыши на число - период времени, за который выпало указанное количество осадков.
R24 - Количество осадков - Количество выпавших осадков за 24 часа, мм.
S - Снежный покров - Высота снежного покрова, см. При наведении курсора мыши на число - состояние снежного покрова и степень покрытия местности в баллах.